When you browse on this site, cookies collect data to enhance your experience and personalize the content and advertising you see.
Visit our Privacy Policy to learn more. By continuing to use the site, you agree to this use of cookies and data.

Previsão horária em Aalen

Hoje, 28 Setembro, Segunda-feira

Tempo Temperatura Precipitação Vento Pressão Humidade
00:00 +5°C° 0 mm 0 m/s 715 mmHg 89%
01:00 +5°C° 0 mm 0 m/s 715 mmHg 90%
02:00 +5°C° 0 mm 0 m/s 715 mmHg 90%
03:00 +6°C° 0 mm 1 m/s 715 mmHg 90%
04:00 +6°C° 0 mm 1 m/s 715 mmHg 91%
05:00 +6°C° 0 mm 1 m/s 715 mmHg 90%
06:00 +5°C° 0 mm 0 m/s 716 mmHg 90%
07:00 +5°C° 0 mm 0 m/s 716 mmHg 88%
08:00 +8°C° 0 mm 0 m/s 716 mmHg 81%
09:00 +11°C° 0 mm 1 m/s 717 mmHg 74%
10:00 +13°C° 0 mm 1 m/s 717 mmHg 67%
11:00 +14°C° 0 mm 1 m/s 717 mmHg 63%
12:00 +15°C° 0 mm 1 m/s 717 mmHg 59%
13:00 +16°C° 0 mm 1 m/s 717 mmHg 55%
14:00 +16°C° 0 mm 1 m/s 717 mmHg 56%
15:00 +16°C° 0 mm 1 m/s 717 mmHg 56%
16:00 +14°C° 0 mm 0 m/s 717 mmHg 57%
17:00 +13°C° 0.1 mm 1 m/s 718 mmHg 65%
18:00 +12°C° 0.1 mm 1 m/s 718 mmHg 74%
19:00 +10°C° 0.1 mm 1 m/s 718 mmHg 82%
20:00 +9°C° 0 mm 1 m/s 719 mmHg 84%
21:00 +9°C° 0 mm 1 m/s 719 mmHg 86%
22:00 +9°C° 0 mm 1 m/s 719 mmHg 88%
23:00 +8°C° 0 mm 1 m/s 719 mmHg 89%

Amanhã, 29 Setembro, Terça-feira

Tempo Temperatura Precipitação Vento Pressão Humidade
00:00 +8°C° 0 mm 1 m/s 720 mmHg 90%
01:00 +8°C° 0 mm 1 m/s 720 mmHg 91%
02:00 +7°C° 0 mm 1 m/s 720 mmHg 92%
03:00 +7°C° 0 mm 1 m/s 719 mmHg 93%
04:00 +6°C° 0 mm 2 m/s 719 mmHg 93%
05:00 +7°C° 0 mm 2 m/s 720 mmHg 93%
06:00 +7°C° 0 mm 2 m/s 720 mmHg 93%
07:00 +8°C° 0 mm 2 m/s 720 mmHg 93%
08:00 +9°C° 0.3 mm 2 m/s 721 mmHg 94%
09:00 +9°C° 0.3 mm 2 m/s 721 mmHg 94%
10:00 +10°C° 0.3 mm 2 m/s 721 mmHg 95%
11:00 +10°C° 0.1 mm 2 m/s 721 mmHg 94%
12:00 +10°C° 0.1 mm 3 m/s 721 mmHg 93%
13:00 +11°C° 0.1 mm 3 m/s 721 mmHg 92%
14:00 +10°C° 0 mm 3 m/s 721 mmHg 92%
15:00 +10°C° 0 mm 3 m/s 722 mmHg 92%
16:00 +10°C° 0 mm 2 m/s 722 mmHg 92%
17:00 +10°C° 0 mm 2 m/s 722 mmHg 92%
18:00 +10°C° 0 mm 2 m/s 722 mmHg 93%
19:00 +9°C° 0 mm 2 m/s 722 mmHg 94%
20:00 +9°C° 0.1 mm 2 m/s 722 mmHg 95%
21:00 +9°C° 0.1 mm 2 m/s 722 mmHg 95%
22:00 +10°C° 0.1 mm 1 m/s 722 mmHg 96%
23:00 +10°C° 0.1 mm 1 m/s 722 mmHg 95%

Depois de amanhã, 30 Setembro, Quarta-feira

Tempo Temperatura Precipitação Vento Pressão Humidade
00:00 +10°C° 0.1 mm 1 m/s 722 mmHg 95%
01:00 +10°C° 0.1 mm 1 m/s 722 mmHg 95%
02:00 +10°C° 0 mm 1 m/s 721 mmHg 95%
03:00 +10°C° 0 mm 1 m/s 721 mmHg 94%
04:00 +10°C° 0 mm 1 m/s 721 mmHg 94%
05:00 +10°C° 0 mm 1 m/s 721 mmHg 94%
06:00 +10°C° 0 mm 1 m/s 721 mmHg 93%
07:00 +10°C° 0 mm 1 m/s 721 mmHg 93%
08:00 +12°C° 0 mm 1 m/s 721 mmHg 89%
09:00 +13°C° 0 mm 1 m/s 721 mmHg 85%
10:00 +15°C° 0 mm 1 m/s 721 mmHg 82%
11:00 +15°C° 0 mm 1 m/s 720 mmHg 78%
12:00 +15°C° 0 mm 0 m/s 720 mmHg 74%
13:00 +16°C° 0 mm 0 m/s 720 mmHg 70%
14:00 +16°C° 0 mm 0 m/s 719 mmHg 71%
15:00 +18°C° 0 mm 1 m/s 719 mmHg 71%
16:00 +18°C° 0 mm 1 m/s 719 mmHg 72%
17:00 +15°C° 0 mm 1 m/s 719 mmHg 79%
18:00 +14°C° 0 mm 1 m/s 718 mmHg 85%
19:00 +12°C° 0 mm 1 m/s 718 mmHg 91%
20:00 +11°C° 0 mm 1 m/s 718 mmHg 92%
21:00 +11°C° 0 mm 1 m/s 718 mmHg 92%
22:00 +10°C° 0 mm 1 m/s 718 mmHg 93%
23:00 +10°C° 0 mm 1 m/s 717 mmHg 93%

1 Outubro, Quinta-feira

Tempo Temperatura Precipitação Vento Pressão Humidade
00:00 +10°C° 0 mm 1 m/s 717 mmHg 94%
01:00 +9°C° 0 mm 1 m/s 716 mmHg 95%
02:00 +9°C° 0 mm 1 m/s 716 mmHg 95%
03:00 +8°C° 0 mm 2 m/s 715 mmHg 96%
04:00 +7°C° 0 mm 2 m/s 715 mmHg 96%
05:00 +8°C° 0 mm 2 m/s 715 mmHg 96%
06:00 +8°C° 0 mm 2 m/s 714 mmHg 96%
07:00 +8°C° 0 mm 2 m/s 714 mmHg 96%
08:00 +9°C° 0 mm 2 m/s 714 mmHg 90%
09:00 +12°C° 0 mm 2 m/s 714 mmHg 85%
10:00 +14°C° 0 mm 2 m/s 713 mmHg 79%
11:00 +15°C° 0 mm 2 m/s 713 mmHg 74%
12:00 +17°C° 0 mm 2 m/s 713 mmHg 69%
13:00 +19°C° 0 mm 2 m/s 713 mmHg 63%
14:00 +18°C° 0 mm 2 m/s 713 mmHg 66%
15:00 +19°C° 0 mm 1 m/s 713 mmHg 69%
16:00 +19°C° 0 mm 1 m/s 713 mmHg 72%
17:00 +16°C° 0 mm 1 m/s 713 mmHg 76%
18:00 +15°C° 0 mm 1 m/s 713 mmHg 80%
19:00 +13°C° 0 mm 1 m/s 712 mmHg 84%
20:00 +13°C° 0.1 mm 1 m/s 713 mmHg 85%
21:00 +13°C° 0.1 mm 1 m/s 713 mmHg 86%
22:00 +13°C° 0.1 mm 1 m/s 713 mmHg 86%
23:00 +13°C° 0 mm 1 m/s 713 mmHg 86%

2 Outubro, Sexta-feira

Tempo Temperatura Precipitação Vento Pressão Humidade
00:00 +13°C° 0 mm 1 m/s 712 mmHg 85%
01:00 +13°C° 0 mm 1 m/s 712 mmHg 85%
02:00 +12°C° 0 mm 1 m/s 712 mmHg 87%
03:00 +12°C° 0 mm 1 m/s 712 mmHg 89%
04:00 +12°C° 0 mm 1 m/s 711 mmHg 91%
05:00 +10°C° 0 mm 2 m/s 711 mmHg 92%
06:00 +10°C° 0 mm 2 m/s 711 mmHg 93%
07:00 +10°C° 0 mm 2 m/s 710 mmHg 94%
08:00 +11°C° 0 mm 3 m/s 710 mmHg 88%
09:00 +12°C° 0 mm 5 m/s 709 mmHg 82%
10:00 +14°C° 0 mm 6 m/s 709 mmHg 76%
11:00 +15°C° 0 mm 6 m/s 708 mmHg 71%
12:00 +16°C° 0 mm 7 m/s 708 mmHg 66%
13:00 +18°C° 0 mm 7 m/s 708 mmHg 60%
14:00 +17°C° 0 mm 7 m/s 707 mmHg 63%
15:00 +17°C° 0 mm 6 m/s 707 mmHg 65%
16:00 +17°C° 0 mm 6 m/s 706 mmHg 68%
17:00 +16°C° 0 mm 6 m/s 706 mmHg 70%
18:00 +15°C° 0 mm 6 m/s 706 mmHg 73%
19:00 +15°C° 0 mm 6 m/s 706 mmHg 75%
20:00 +14°C° 0 mm 6 m/s 706 mmHg 77%
21:00 +14°C° 0 mm 6 m/s 705 mmHg 79%
22:00 +14°C° 0 mm 6 m/s 705 mmHg 80%
23:00 +13°C° 0 mm 5 m/s 705 mmHg 82%

3 Outubro, Sábado

Tempo Temperatura Precipitação Vento Pressão Humidade
00:00 +13°C° 0 mm 5 m/s 705 mmHg 84%
01:00 +12°C° 0 mm 4 m/s 705 mmHg 86%
02:00 +12°C° 0 mm 4 m/s 705 mmHg 86%
03:00 +11°C° 0 mm 4 m/s 704 mmHg 86%
04:00 +11°C° 0 mm 3 m/s 704 mmHg 86%
05:00 +11°C° 0 mm 3 m/s 704 mmHg 86%
06:00 +11°C° 0 mm 3 m/s 704 mmHg 85%
07:00 +11°C° 0 mm 3 m/s 705 mmHg 85%
08:00 +12°C° 0 mm 3 m/s 705 mmHg 82%
09:00 +14°C° 0 mm 2 m/s 706 mmHg 79%
10:00 +15°C° 0 mm 2 m/s 706 mmHg 76%
11:00 +16°C° 0 mm 2 m/s 706 mmHg 74%
12:00 +16°C° 0 mm 3 m/s 707 mmHg 73%
13:00 +17°C° 0 mm 3 m/s 707 mmHg 71%
14:00 +15°C° 0 mm 4 m/s 707 mmHg 73%
15:00 +14°C° 0 mm 5 m/s 708 mmHg 75%
16:00 +13°C° 0 mm 6 m/s 709 mmHg 76%
17:00 +12°C° 0 mm 5 m/s 709 mmHg 79%
18:00 +10°C° 0 mm 5 m/s 710 mmHg 83%
19:00 +8°C° 0 mm 5 m/s 710 mmHg 86%
20:00 +8°C° 0 mm 4 m/s 710 mmHg 87%
21:00 +9°C° 0 mm 3 m/s 710 mmHg 89%
22:00 +8°C° 0 mm 3 m/s 710 mmHg 91%
23:00 +8°C° 0.4 mm 3 m/s 711 mmHg 92%
Mostrar mais